When you browse on this site, cookies collect data to enhance your experience and personalize the content and advertising you see.
Visit our Privacy Policy to learn more. By continuing to use the site, you agree to this use of cookies and data.
  • En España
  • Lista de países
  • Para 7 días
  • Temperatura del agua
  • Mapa Satelital
  • El tiempo en el mapa
  • Informadores
  • user-avatar
    Iniciar sesión

    Tiempo cada hora Kruhle

    Hoy, 24 Mayo, Viernes

    Tiempo Temperatura Precipitaciones Viento Presión Humedad
    00:00 +15°C° 0 mm 2 mps 743 mmHg 82%
    01:00 +15°C° 0 mm 2 mps 743 mmHg 82%
    02:00 +15°C° 0 mm 2 mps 743 mmHg 83%
    03:00 +14°C° 0 mm 2 mps 743 mmHg 84%
    04:00 +15°C° 0 mm 2 mps 743 mmHg 84%
    05:00 +15°C° 0 mm 2 mps 743 mmHg 84%
    06:00 +15°C° 0 mm 2 mps 744 mmHg 84%
    07:00 +17°C° 0 mm 2 mps 744 mmHg 78%
    08:00 +19°C° 0 mm 2 mps 744 mmHg 73%
    09:00 +21°C° 0 mm 2 mps 744 mmHg 67%
    10:00 +23°C° 0.1 mm 2 mps 744 mmHg 63%
    11:00 +24°C° 0.1 mm 2 mps 744 mmHg 58%
    12:00 +25°C° 0.1 mm 2 mps 744 mmHg 54%
    13:00 +26°C° 0.2 mm 2 mps 744 mmHg 53%
    14:00 +26°C° 0.2 mm 2 mps 744 mmHg 51%
    15:00 +27°C° 0.2 mm 1 mps 744 mmHg 50%
    16:00 +26°C° 0 mm 1 mps 744 mmHg 53%
    17:00 +26°C° 0 mm 1 mps 744 mmHg 55%
    18:00 +24°C° 0 mm 0 mps 744 mmHg 58%
    19:00 +24°C° 0.2 mm 1 mps 744 mmHg 62%
    20:00 +23°C° 0.2 mm 1 mps 744 mmHg 66%
    21:00 +21°C° 0.2 mm 1 mps 744 mmHg 70%
    22:00 +19°C° 0.4 mm 2 mps 744 mmHg 73%
    23:00 +19°C° 0.4 mm 2 mps 744 mmHg 76%

    Mañana, 25 Mayo, Sábado

    Tiempo Temperatura Precipitaciones Viento Presión Humedad
    00:00 +18°C° 0.4 mm 2 mps 744 mmHg 79%
    01:00 +18°C° 0 mm 2 mps 744 mmHg 79%
    02:00 +18°C° 0 mm 2 mps 744 mmHg 79%
    03:00 +17°C° 0 mm 2 mps 744 mmHg 78%
    04:00 +18°C° 0 mm 2 mps 744 mmHg 80%
    05:00 +18°C° 0 mm 2 mps 744 mmHg 81%
    06:00 +18°C° 0 mm 2 mps 744 mmHg 82%
    07:00 +19°C° 0 mm 3 mps 744 mmHg 75%
    08:00 +21°C° 0 mm 3 mps 744 mmHg 68%
    09:00 +22°C° 0 mm 4 mps 744 mmHg 62%
    10:00 +23°C° 0 mm 4 mps 744 mmHg 59%
    11:00 +25°C° 0 mm 4 mps 744 mmHg 56%
    12:00 +26°C° 0 mm 4 mps 743 mmHg 53%
    13:00 +26°C° 0.3 mm 4 mps 743 mmHg 54%
    14:00 +26°C° 0.3 mm 4 mps 743 mmHg 55%
    15:00 +26°C° 0.3 mm 4 mps 743 mmHg 56%
    16:00 +23°C° 0.9 mm 4 mps 742 mmHg 63%
    17:00 +22°C° 0.9 mm 4 mps 742 mmHg 69%
    18:00 +21°C° 0.9 mm 4 mps 742 mmHg 76%
    19:00 +20°C° 0.7 mm 3 mps 742 mmHg 80%
    20:00 +19°C° 0.7 mm 3 mps 742 mmHg 84%
    21:00 +18°C° 0.7 mm 2 mps 742 mmHg 89%
    22:00 +18°C° 0.5 mm 2 mps 742 mmHg 90%
    23:00 +18°C° 0.5 mm 2 mps 741 mmHg 92%

    Pasado mañana, 26 Mayo, Domingo

    Tiempo Temperatura Precipitaciones Viento Presión Humedad
    00:00 +18°C° 0.5 mm 1 mps 741 mmHg 93%
    01:00 +18°C° 2 mm 1 mps 741 mmHg 93%
    02:00 +17°C° 2 mm 2 mps 740 mmHg 94%
    03:00 +17°C° 2 mm 2 mps 740 mmHg 94%
    04:00 +17°C° 1.6 mm 2 mps 740 mmHg 94%
    05:00 +17°C° 1.6 mm 3 mps 740 mmHg 93%
    06:00 +17°C° 1.6 mm 4 mps 740 mmHg 93%
    07:00 +17°C° 2.4 mm 4 mps 740 mmHg 92%
    08:00 +17°C° 2.4 mm 4 mps 740 mmHg 91%
    09:00 +17°C° 2.4 mm 4 mps 740 mmHg 91%
    10:00 +18°C° 0.5 mm 3 mps 740 mmHg 88%
    11:00 +19°C° 0.5 mm 3 mps 741 mmHg 85%
    12:00 +19°C° 0.5 mm 3 mps 741 mmHg 82%
    13:00 +21°C° 0.1 mm 4 mps 741 mmHg 77%
    14:00 +22°C° 0.1 mm 4 mps 741 mmHg 71%
    15:00 +23°C° 0.1 mm 4 mps 741 mmHg 66%
    16:00 +22°C° 0.8 mm 4 mps 741 mmHg 70%
    17:00 +22°C° 0.8 mm 4 mps 742 mmHg 73%
    18:00 +22°C° 0.8 mm 4 mps 742 mmHg 77%
    19:00 +21°C° 1.5 mm 4 mps 742 mmHg 81%
    20:00 +19°C° 1.5 mm 4 mps 743 mmHg 85%
    21:00 +18°C° 1.5 mm 4 mps 743 mmHg 89%
    22:00 +18°C° 0 mm 4 mps 744 mmHg 90%
    23:00 +17°C° 0 mm 4 mps 744 mmHg 91%

    27 Mayo, Lunes

    Tiempo Temperatura Precipitaciones Viento Presión Humedad
    00:00 +17°C° 0 mm 3 mps 744 mmHg 93%
    01:00 +16°C° 0 mm 3 mps 745 mmHg 93%
    02:00 +16°C° 0 mm 3 mps 745 mmHg 93%
    03:00 +14°C° 0 mm 3 mps 746 mmHg 94%
    04:00 +14°C° 0 mm 3 mps 746 mmHg 93%
    05:00 +16°C° 0 mm 3 mps 747 mmHg 92%
    06:00 +16°C° 0 mm 3 mps 747 mmHg 92%
    07:00 +17°C° 0 mm 3 mps 748 mmHg 83%
    08:00 +19°C° 0 mm 3 mps 748 mmHg 75%
    09:00 +21°C° 0 mm 4 mps 748 mmHg 67%
    10:00 +21°C° 0 mm 4 mps 749 mmHg 62%
    11:00 +22°C° 0 mm 4 mps 749 mmHg 58%
    12:00 +23°C° 0 mm 4 mps 749 mmHg 53%
    13:00 +25°C° 0 mm 4 mps 749 mmHg 52%
    14:00 +25°C° 0 mm 4 mps 749 mmHg 52%
    15:00 +26°C° 0 mm 4 mps 750 mmHg 52%
    16:00 +25°C° 0 mm 3 mps 750 mmHg 56%
    17:00 +25°C° 0 mm 3 mps 750 mmHg 60%
    18:00 +25°C° 0 mm 2 mps 750 mmHg 65%
    19:00 +23°C° 0 mm 2 mps 750 mmHg 69%
    20:00 +21°C° 0 mm 2 mps 750 mmHg 72%
    21:00 +20°C° 0 mm 1 mps 751 mmHg 76%
    22:00 +20°C° 0 mm 1 mps 751 mmHg 78%
    23:00 +19°C° 0 mm 1 mps 751 mmHg 79%

    28 Mayo, Martes

    Tiempo Temperatura Precipitaciones Viento Presión Humedad
    00:00 +19°C° 0 mm 1 mps 751 mmHg 81%
    01:00 +18°C° 0 mm 1 mps 751 mmHg 81%
    02:00 +18°C° 0 mm 1 mps 752 mmHg 82%
    03:00 +18°C° 0 mm 1 mps 752 mmHg 82%
    04:00 +18°C° 0 mm 1 mps 752 mmHg 82%
    05:00 +19°C° 0 mm 1 mps 752 mmHg 81%
    06:00 +19°C° 0 mm 1 mps 752 mmHg 81%
    07:00 +20°C° 0 mm 2 mps 752 mmHg 75%
    08:00 +23°C° 0 mm 2 mps 752 mmHg 69%
    09:00 +25°C° 0 mm 2 mps 753 mmHg 63%
    10:00 +26°C° 0 mm 2 mps 753 mmHg 60%
    11:00 +27°C° 0 mm 2 mps 753 mmHg 56%
    12:00 +28°C° 0 mm 2 mps 752 mmHg 53%
    13:00 +28°C° 0 mm 2 mps 752 mmHg 51%
    14:00 +29°C° 0 mm 2 mps 752 mmHg 50%
    15:00 +29°C° 0 mm 2 mps 752 mmHg 48%
    16:00 +29°C° 0 mm 2 mps 752 mmHg 52%
    17:00 +29°C° 0 mm 2 mps 752 mmHg 56%
    18:00 +29°C° 0 mm 2 mps 752 mmHg 59%
    19:00 +27°C° 0 mm 2 mps 752 mmHg 63%
    20:00 +25°C° 0 mm 2 mps 752 mmHg 66%
    21:00 +22°C° 0 mm 3 mps 752 mmHg 70%
    22:00 +21°C° 0 mm 2 mps 752 mmHg 72%
    23:00 +20°C° 0 mm 2 mps 752 mmHg 75%

    29 Mayo, Miércoles

    Tiempo Temperatura Precipitaciones Viento Presión Humedad
    00:00 +20°C° 0 mm 2 mps 752 mmHg 78%
    01:00 +19°C° 0 mm 2 mps 752 mmHg 80%
    02:00 +19°C° 0 mm 2 mps 752 mmHg 82%
    03:00 +19°C° 0 mm 2 mps 752 mmHg 83%
    04:00 +19°C° 0 mm 2 mps 752 mmHg 83%
    05:00 +19°C° 0 mm 2 mps 752 mmHg 83%
    06:00 +19°C° 0 mm 2 mps 752 mmHg 83%
    07:00 +21°C° 0 mm 3 mps 752 mmHg 76%
    08:00 +23°C° 0 mm 4 mps 752 mmHg 69%
    09:00 +26°C° 0 mm 4 mps 752 mmHg 63%
    10:00 +27°C° 0 mm 5 mps 752 mmHg 60%
    11:00 +28°C° 0 mm 5 mps 752 mmHg 57%
    12:00 +29°C° 0 mm 6 mps 752 mmHg 55%
    13:00 +29°C° 0 mm 6 mps 752 mmHg 54%
    14:00 +29°C° 0 mm 6 mps 751 mmHg 54%
    15:00 +30°C° 0 mm 5 mps 751 mmHg 53%
    16:00 +29°C° 0 mm 5 mps 751 mmHg 57%
    17:00 +29°C° 0 mm 4 mps 751 mmHg 60%
    18:00 +29°C° 0 mm 3 mps 751 mmHg 64%
    19:00 +27°C° 0 mm 3 mps 751 mmHg 67%
    20:00 +25°C° 0 mm 3 mps 751 mmHg 71%
    21:00 +22°C° 0 mm 3 mps 751 mmHg 74%
    22:00 +22°C° 0 mm 3 mps 751 mmHg 76%
    23:00 +21°C° 0 mm 3 mps 751 mmHg 77%
    Mostrar más